CW2969 Weather Reports


time (UTC)temp
F
wind
direction
speed
knots
gust
knots
rain 1hr
in
rain 24hr
in
rain mn
in
humidity
%
barometer
mb
20260905234511 100 61 7.8 8.7 0.00 0.00 0.00 38 1009.1
20260905234011 100 104 5.2 6.1 0.00 0.00 0.00 38 1009.0
20260905233011 100 113 0.9 6.1 0.00 0.00 0.00 38 1008.9
20260905232511 100 253 0.0 0.9 0.00 0.00 0.00 38 1008.9
20260905232011 100 141 0.0 2.6 0.00 0.00 0.00 37 1008.9
20260905231011 100 228 0.9 3.5 0.00 0.00 0.00 38 1009.0
20260905230011 99 241 1.7 2.6 0.00 0.00 0.00 38 1008.9
20260905225011 99 123 0.9 1.7 0.00 0.00 0.00 39 1008.9
20260905224511 99 107 1.7 2.6 0.00 0.00 0.00 39 1008.9
20260905224010 99 113 0.0 3.5 0.00 0.00 0.00 39 1008.9
20260905223511 99 128 3.5 3.5 0.00 0.00 0.00 39 1008.9
20260905223010 99 90 0.0 7.8 0.00 0.00 0.00 38 1008.9
20260905222510 100 105 3.5 7.8 0.00 0.00 0.00 38 1009.0
20260905222010 100 75 2.6 4.3 0.00 0.00 0.00 37 1009.0
20260905221510 100 244 0.0 0.9 0.00 0.00 0.00 37 1009.1
20260905221010 100 94 0.9 3.5 0.00 0.00 0.00 37 1009.2
20260905220510 100 192 1.7 5.2 0.00 0.00 0.00 37 1009.2
20260905220010 101 85 2.6 5.2 0.00 0.00 0.00 37 1009.2
20260905215510 100 338 0.9 2.6 0.00 0.00 0.00 37 1009.1
20260905215010 101 228 1.7 4.3 0.00 0.00 0.00 36 1009.1
20260905214510 101 113 1.7 5.2 0.00 0.00 0.00 37 1009.2
20260905214010 101 107 1.7 5.2 0.00 0.00 0.00 37 1009.1
20260905213510 100 250 0.0 4.3 0.00 0.00 0.00 37 1009.1
20260905213010 100 126 0.0 6.1 0.00 0.00 0.00 37 1009.2
20260905212509 100 98 0.9 6.1 0.00 0.00 0.00 37 1009.2
20260905212009 100 115 1.7 1.7 0.00 0.00 0.00 37 1009.2
20260905211509 100 107 0.9 4.3 0.00 0.00 0.00 37 1009.2
20260905211009 100 132 1.7 4.3 0.00 0.00 0.00 37 1009.4
20260905210510 100 236 0.9 4.3 0.00 0.00 0.00 37 1009.4
20260905210009 100 155 2.6 3.5 0.00 0.00 0.00 38 1009.5
20260905205509 100 311 0.0 3.5 0.00 0.00 0.00 38 1009.5
20260905205009 100 319 2.6 4.3 0.00 0.00 0.00 38 1009.6
20260905204509 99 301 3.5 5.2 0.00 0.00 0.00 39 1009.7
20260905204439 99 315 1.7 7.0 0.00 0.00 0.00 39 1010.0
20260905202509 99 120 0.9 3.5 0.00 0.00 0.00 39 1010.2
20260905202009 99 72 0.9 3.5 0.00 0.00 0.00 39 1010.3
20260905201509 99 98 1.7 6.1 0.00 0.00 0.00 40 1010.4
20260905201009 98 186 1.7 7.8 0.00 0.00 0.00 40 1010.5
20260905200509 99 106 5.2 7.8 0.00 0.00 0.00 41 1010.5
20260905200009 98 139 6.1 7.0 0.00 0.00 0.00 42 1010.7
20260905195509 98 118 2.6 6.1 0.00 0.00 0.00 43 1010.7
20260905195008 98 232 2.6 4.3 0.00 0.00 0.00 44 1010.7
20260905194509 98 326 2.6 5.2 0.00 0.00 0.00 44 1010.8
20260905194008 98 300 4.3 8.7 0.00 0.00 0.00 44 1010.9
20260905193508 98 162 8.7 8.7 0.00 0.00 0.00 44 1011.0
20260905193009 98 144 0.9 3.5 0.00 0.00 0.00 45 1011.1
20260905192508 98 221 0.9 6.1 0.00 0.00 0.00 45 1011.1
20260905192008 98 119 0.0 6.1 0.00 0.00 0.00 45 1011.2
20260905191508 97 167 0.9 7.8 0.00 0.00 0.00 47 1011.2
20260905190008 97 201 1.7 5.2 0.00 0.00 0.00 48 1011.5
20260905185507 96 213 1.7 5.2 0.00 0.00 0.00 48 1011.6
20260905185007 96 119 0.9 4.3 0.00 0.00 0.00 48 1011.7
20260905184507 96 113 3.5 5.2 0.00 0.00 0.00 49 1011.9
20260905184007 95 108 2.6 5.2 0.00 0.00 0.00 49 1011.9
20260905183507 95 228 1.7 3.5 0.00 0.00 0.00 51 1011.9
20260905183007 95 309 1.7 6.1 0.00 0.00 0.00 51 1012.0
20260905182507 95 190 4.3 6.1 0.00 0.00 0.00 51 1012.2
20260905182007 95 197 2.6 3.5 0.00 0.00 0.00 51 1012.3
20260905181507 94 155 0.9 5.2 0.00 0.00 0.00 51 1012.4
20260905181007 94 159 4.3 7.0 0.00 0.00 0.00 52 1012.5
20260905180507 94 111 2.6 7.0 0.00 0.00 0.00 53 1012.7
20260905175507 93 186 3.5 7.0 0.00 0.00 0.00 56 1012.8
20260905175007 93 171 4.3 7.0 0.00 0.00 0.00 57 1012.9
20260905174507 93 302 2.6 7.0 0.00 0.00 0.00 57 1013.0
20260905173507 93 178 3.5 5.2 0.00 0.00 0.00 59 1013.3
20260905173006 92 177 1.7 5.2 0.00 0.00 0.00 59 1013.3
20260905172507 92 347 0.9 4.3 0.00 0.00 0.00 61 1013.3
20260905172006 92 312 0.0 3.5 0.00 0.00 0.00 62 1013.4
20260905170006 91 276 1.7 3.5 0.00 0.00 0.00 64 1013.5
20260905165006 90 236 4.3 8.7 0.00 0.00 0.00 65 1013.5
20260905164506 90 92 1.7 6.1 0.00 0.00 0.00 66 1013.6
20260905164006 90 130 2.6 7.0 0.00 0.00 0.00 66 1013.6
20260905163006 89 96 0.9 7.0 0.00 0.00 0.00 68 1013.7
20260905162506 89 143 0.9 3.5 0.00 0.00 0.00 70 1013.8
20260905162006 88 172 1.7 4.3 0.00 0.00 0.00 70 1013.8
20260905161506 88 224 2.6 6.1 0.00 0.00 0.00 70 1013.8
20260905161006 88 244 1.7 6.1 0.00 0.00 0.00 70 1013.8
20260905155506 87 200 1.7 3.5 0.00 0.00 0.00 72 1013.8
20260905155006 87 298 0.0 7.0 0.00 0.00 0.00 73 1013.8
20260905154005 87 192 0.9 4.3 0.00 0.00 0.00 74 1013.8
20260905153505 87 198 0.9 4.3 0.00 0.00 0.00 74 1013.8
20260905153005 86 136 1.7 4.3 0.00 0.00 0.00 76 1013.8
20260905152505 86 347 1.7 3.5 0.00 0.00 0.00 77 1013.7
20260905152005 85 289 1.7 4.3 0.00 0.00 0.00 77 1013.8
20260905151505 85 192 4.3 4.3 0.00 0.00 0.00 77 1013.9
20260905151005 85 167 0.9 2.6 0.00 0.01 0.00 78 1013.9
20260905150505 84 191 2.6 3.5 0.00 0.01 0.00 78 1013.8
20260905150005 84 269 2.6 3.5 0.00 0.01 0.00 78 1013.8
20260905145504 84 196 1.7 3.5 0.00 0.02 0.00 79 1013.8
20260905145005 84 271 1.7 2.6 0.00 0.02 0.00 79 1013.8
20260905144505 84 323 2.6 2.6 0.00 0.02 0.00 79 1013.8
20260905144005 84 126 0.0 0.9 0.00 0.02 0.00 79 1013.8
20260905143504 84 158 0.0 1.7 0.00 0.02 0.00 80 1013.7
20260905143004 84 227 0.9 4.3 0.00 0.02 0.00 80 1013.8
20260905142504 83 181 1.7 4.3 0.00 0.02 0.00 80 1013.7
20260905142004 83 225 0.0 2.6 0.00 0.02 0.00 80 1013.7
20260905141534 83 136 1.7 2.6 0.00 0.02 0.00 80 1013.6
20260905140034 82 157 1.7 2.6 0.00 0.02 0.00 81 1013.5
20260905135534 81 130 0.0 0.9 0.00 0.02 0.00 81 1013.5
20260905135034 81 178 0.9 0.9 0.00 0.02 0.00 81 1013.5
20260905134534 81 134 0.0 0.0 0.00 0.02 0.00 81 1013.5
20260905134034 81 124 0.0 2.6 0.00 0.02 0.00 81 1013.4
20260905133034 80 124 0.0 3.5 0.00 0.02 0.00 81 1013.3
20260905132534 80 142 2.6 3.5 0.00 0.02 0.00 81 1013.3
20260905132034 80 145 0.0 0.0 0.00 0.02 0.00 81 1013.2
20260905131534 80 104 0.0 2.6 0.00 0.02 0.00 81 1013.2
20260905131034 79 104 2.6 2.6 0.00 0.02 0.00 82 1013.1
20260905130534 79 113 0.0 2.6 0.00 0.02 0.00 82 1013.2
20260905130034 79 142 0.0 0.0 0.00 0.02 0.00 82 1013.0
20260905125533 78 142 0.0 0.0 0.00 0.02 0.00 82 1013.0
20260905125034 78 142 0.0 0.0 0.00 0.02 0.00 82 1012.9
20260905124533 78 142 0.0 0.0 0.00 0.02 0.00 82 1012.8
20260905124034 78 142 0.0 0.0 0.00 0.02 0.00 82 1012.7
20260905123033 78 142 0.0 0.0 0.00 0.02 0.00 82 1012.8
20260905122533 78 142 0.0 0.0 0.00 0.02 0.00 82 1012.8
20260905122033 78 142 0.0 0.0 0.00 0.02 0.00 82 1012.7
20260905121534 78 142 0.0 0.0 0.00 0.02 0.00 82 1012.7
20260905121033 78 142 0.0 0.0 0.00 0.02 0.00 82 1012.6
20260905120033 78 142 0.0 0.0 0.00 0.02 0.00 82 1012.6
20260905115533 78 142 0.0 0.0 0.00 0.02 0.00 82 1012.5
20260905115033 78 142 0.0 0.0 0.00 0.02 0.00 82 1012.4
20260905114533 78 142 0.0 0.0 0.00 0.02 0.00 82 1012.5
20260905114033 78 142 0.0 0.0 0.00 0.02 0.00 82 1012.4
20260905113533 78 142 0.0 0.0 0.00 0.02 0.00 82 1012.4
20260905112533 78 142 0.0 0.0 0.00 0.02 0.00 82 1012.4
20260905112032 78 142 0.0 0.0 0.00 0.02 0.00 81 1012.4
20260905111532 78 142 0.0 0.0 0.00 0.02 0.00 81 1012.3
20260905111033 78 142 0.0 0.0 0.00 0.02 0.00 81 1012.2
20260905110533 78 142 0.0 0.0 0.00 0.02 0.00 81 1012.2
20260905110032 78 142 0.0 0.0 0.00 0.02 0.00 81 1012.2
20260905105532 78 142 0.0 0.0 0.00 0.02 0.00 81 1012.2
20260905105032 78 142 0.0 0.0 0.00 0.02 0.00 81 1012.1
20260905104032 78 142 0.0 0.0 0.00 0.02 0.00 81 1012.1
20260905103532 78 142 0.0 0.0 0.00 0.02 0.00 81 1012.1
20260905103032 78 142 0.0 0.0 0.00 0.02 0.00 81 1012.1
20260905102532 78 142 0.0 0.0 0.00 0.02 0.00 81 1012.1
20260905102032 78 142 0.0 0.0 0.00 0.02 0.00 81 1012.2
20260905101531 78 142 0.0 0.0 0.00 0.02 0.00 81 1012.2
20260905101032 78 142 0.0 0.0 0.00 0.02 0.00 81 1012.1
20260905100532 78 142 0.0 0.0 0.00 0.02 0.00 81 1012.0
20260905100031 79 142 0.0 0.0 0.00 0.02 0.00 81 1012.0
20260905095531 79 142 0.0 0.0 0.00 0.02 0.00 81 1011.9
20260905095002 79 142 0.0 0.0 0.00 0.02 0.00 81 1011.9
20260905094531 79 142 0.0 0.0 0.00 0.02 0.00 80 1011.9
20260905094032 79 142 0.0 0.0 0.00 0.02 0.00 80 1011.9
20260905093031 79 142 0.0 0.0 0.00 0.02 0.00 80 1011.9
20260905092531 79 142 0.0 0.0 0.00 0.02 0.00 80 1011.9
20260905092031 79 142 0.0 0.0 0.00 0.02 0.00 80 1011.9
20260905090531 80 125 0.0 0.0 0.00 0.02 0.00 80 1012.0
20260905090031 80 233 0.0 0.0 0.00 0.02 0.00 80 1012.0
20260905085531 80 204 0.0 0.0 0.00 0.02 0.00 80 1011.9
20260905085031 80 200 0.0 1.7 0.00 0.02 0.00 80 1012.0
20260905084031 80 215 0.0 0.0 0.00 0.02 0.00 80 1012.0
20260905083531 80 207 0.0 0.9 0.00 0.02 0.00 80 1012.0
20260905083030 80 218 0.0 1.7 0.00 0.02 0.00 80 1012.1
20260905082531 80 215 0.9 1.7 0.00 0.02 0.00 80 1012.1
20260905081530 80 157 0.0 2.6 0.00 0.02 0.00 80 1012.2
20260905081030 80 215 0.9 2.6 0.00 0.02 0.00 80 1012.2
20260905080530 80 242 0.0 0.9 0.00 0.02 0.00 79 1012.3
20260905080030 80 197 0.9 0.9 0.00 0.02 0.00 79 1012.3
20260905075030 80 222 0.0 0.0 0.00 0.02 0.00 79 1012.3
20260905073530 80 221 0.0 0.9 0.00 0.02 0.00 79 1012.3
20260905072530 80 194 0.0 0.0 0.00 0.02 0.00 78 1012.5
20260905072029 80 194 0.0 0.9 0.00 0.02 0.00 78 1012.6
20260905071529 81 194 0.0 1.7 0.00 0.02 0.00 78 1012.6
20260905071030 81 194 0.9 3.5 0.00 0.02 0.00 78 1012.6
20260905070530 81 216 0.9 3.5 0.00 0.02 0.00 78 1012.6
20260905065029 81 206 0.0 0.9 0.00 0.02 0.00 77 1012.6
20260905064029 81 192 0.9 1.7 0.00 0.02 0.00 77 1012.6
20260905063529 81 225 0.9 0.9 0.00 0.02 0.00 76 1012.7
20260905062529 81 225 0.0 0.0 0.00 0.02 0.00 76 1012.7
20260905061529 81 227 0.0 2.6 0.00 0.02 0.00 76 1012.7
20260905061029 82 130 0.0 0.9 0.00 0.02 0.00 75 1012.8
20260905060529 82 182 0.0 1.7 0.00 0.02 0.00 75 1012.8
20260905060029 82 182 0.0 1.7 0.00 0.02 0.00 75 1012.7
20260905055029 82 210 0.0 0.9 0.00 0.02 0.00 74 1012.7
20260905054529 82 157 0.9 0.9 0.00 0.02 0.00 74 1012.7
20260905053529 82 195 0.9 1.7 0.00 0.02 0.00 74 1012.8
20260905053029 83 142 1.7 1.7 0.00 0.02 0.00 73 1012.8
20260905052529 83 142 0.0 1.7 0.00 0.02 0.00 73 1012.8
20260905052028 83 248 0.0 1.7 0.00 0.02 0.00 73 1012.8
20260905051528 83 166 0.0 1.7 0.00 0.02 0.00 73 1012.8
20260905051029 83 202 0.0 1.7 0.00 0.02 0.00 73 1012.8
20260905050528 83 178 0.9 1.7 0.00 0.02 0.00 72 1012.7
20260905050028 83 244 0.0 1.7 0.00 0.02 0.00 72 1012.8
20260905045528 83 109 0.9 1.7 0.00 0.02 0.02 72 1012.8
20260905045028 84 159 0.0 3.5 0.00 0.02 0.02 72 1012.7
20260905044528 84 104 1.7 3.5 0.00 0.02 0.02 71 1012.7
20260905044028 84 150 0.9 3.5 0.00 0.02 0.02 71 1012.7
20260905043528 84 106 0.0 0.9 0.00 0.02 0.02 71 1012.7
20260905043028 84 118 0.0 0.9 0.00 0.02 0.02 71 1012.8
20260905042528 84 115 0.0 2.6 0.00 0.02 0.02 71 1012.8
20260905042028 84 130 1.7 2.6 0.00 0.02 0.02 70 1012.7
20260905041528 84 144 0.9 2.6 0.00 0.02 0.02 70 1012.7
20260905041028 84 141 0.0 4.3 0.00 0.02 0.02 70 1012.6
20260905040528 84 158 2.6 5.2 0.00 0.02 0.02 70 1012.7
20260905040028 85 165 0.9 5.2 0.00 0.02 0.02 70 1012.7
20260905035528 85 135 0.9 5.2 0.00 0.02 0.02 69 1012.6
20260905035027 85 111 2.6 5.2 0.00 0.02 0.02 69 1012.6
20260905034528 85 175 0.9 3.5 0.00 0.02 0.02 69 1012.7
20260905033528 85 152 0.0 6.1 0.00 0.02 0.02 69 1012.7
20260905033028 85 118 2.6 6.1 0.00 0.02 0.02 68 1012.6
20260905032527 85 117 1.7 1.7 0.00 0.02 0.02 68 1012.6
20260905032027 85 155 1.7 1.7 0.00 0.02 0.02 67 1012.5
20260905031027 86 143 0.9 3.5 0.00 0.02 0.02 67 1012.3
20260905030027 86 111 0.9 5.2 0.00 0.02 0.02 66 1012.3
20260905025528 86 128 3.5 5.2 0.00 0.02 0.02 66 1012.3
20260905025027 86 130 0.0 1.7 0.00 0.02 0.02 65 1012.2
20260905024527 86 130 1.7 2.6 0.00 0.02 0.02 65 1012.2
20260905024027 86 128 0.0 6.1 0.00 0.02 0.02 64 1012.2
20260905023527 86 154 3.5 6.1 0.00 0.02 0.02 64 1012.1
20260905023027 86 120 0.0 1.7 0.00 0.02 0.02 64 1012.1
20260905022527 86 103 0.0 1.7 0.00 0.02 0.02 64 1012.0
20260905021527 86 101 0.0 2.6 0.00 0.02 0.02 63 1011.7
20260905020527 86 122 2.6 5.2 0.00 0.02 0.02 63 1011.6
20260905020027 87 143 0.0 0.9 0.00 0.02 0.02 63 1011.6
20260905015527 87 143 0.9 0.9 0.00 0.02 0.02 63 1011.6
20260905015026 87 129 0.0 0.0 0.00 0.02 0.02 62 1011.6
20260905014526 87 129 0.0 2.6 0.00 0.02 0.02 62 1011.6
20260905014026 87 99 2.6 2.6 0.00 0.02 0.02 62 1011.7
20260905013527 87 277 0.0 1.7 0.00 0.02 0.02 62 1011.6
20260905013026 87 115 0.0 1.7 0.00 0.02 0.02 62 1011.5
20260905012026 88 150 0.9 5.2 0.00 0.02 0.02 61 1011.5
20260905011526 88 169 1.7 5.2 0.00 0.02 0.02 61 1011.6
20260905011026 88 249 0.0 5.2 0.00 0.02 0.02 61 1011.4
20260905010526 88 119 1.7 5.2 0.00 0.02 0.02 61 1011.3
20260905010026 89 131 4.3 4.3 0.00 0.02 0.02 61 1011.2
20260905005526 89 21 1.7 3.5 0.00 0.02 0.02 61 1011.1
20260905005026 89 104 2.6 4.3 0.00 0.02 0.02 60 1011.0
20260905004025 90 147 3.5 7.0 0.00 0.02 0.02 59 1011.0
20260905003525 90 248 1.7 7.0 0.00 0.02 0.02 59 1010.9
20260905003025 90 15 1.7 6.1 0.00 0.02 0.02 59 1010.9
20260905002526 90 143 4.3 6.1 0.00 0.02 0.02 59 1010.9
20260905002025 91 130 4.3 10.4 0.00 0.02 0.02 58 1010.9
20260905001525 91 133 6.1 10.4 0.00 0.02 0.02 58 1011.0
20260905001025 91 109 5.2 5.2 0.00 0.02 0.02 57 1010.9
20260905000525 91 113 3.5 3.5 0.00 0.02 0.02 57 1010.9
20260905000025 91 119 2.6 5.2 0.00 0.02 0.02 56 1010.7
20260904235525 91 74 1.7 5.2 0.00 0.02 0.02 56 1010.8
20260904235025 92 105 2.6 6.1 0.00 0.02 0.02 56 1010.8